St Athan Royal Air Force Base, United Kingdom

1:54 PM GMT on February 25, 2017 (GMT +0000)
Saint Athan Air Base

Weather History for EGDX - January, 2013

Change the Weather History Date:

Saturday, January 5, 2013

  Actual Average (EGFF) Record (EGFF)
Temperature  
Mean Temperature 49 °F -  
Max Temperature 54 °F 44 °F 55 °F (1999)
Min Temperature 44 °F 36 °F 26 °F (2003)
Degree Days  
Heating Degree Days 16    
Moisture  
Dew Point 47 °F    
Average Humidity 92    
Maximum Humidity 100    
Minimum Humidity 77    
Precipitation  
Precipitation 0.01 in - - ()
Sea Level Pressure  
Sea Level Pressure 30.55 in    
Wind  
Wind Speed 2 mph ()    
Max Wind Speed 6 mph    
Max Gust Speed -    
Visibility 7.2 miles    
Events Rain    
Averages and records for this station are not official NWS values.
T = Trace of Precipitation, MM = Missing Value Source: Averaged Metar Reports

Daily Weather History Graph

Daily Weather History Graph

Search for Another Location

Airport or City:

Trip Planner

Search our weather history database for the weather conditions in past years. The results will help you decide how hot, cold, wet, or windy it might be!

Date:

Astronomy

Jan. 05, 2013 Rise Set
Actual Time 8:17 AM GMT 4:20 PM GMT
Civil Twilight 7:38 AM GMT 5:00 PM GMT
Nautical Twilight 6:55 AM GMT 5:42 PM GMT
Astronomical Twilight 6:15 AM GMT 6:23 PM GMT
Moon 12:41 AM GMT (1/5) 11:26 AM GMT (1/5)
Length of Visible Light 9h 21m
Length of Day
8h 02m
Waning Gibbous, 46% of the Moon is Illuminated
Jan 5
Waning Gibbous
Jan 11
New
Jan 18
First Quarter
Jan 27
Full
Feb 3
Last Quarter

Hourly Weather History & Observations

Time (GMT) Temp. Windchill Dew Point Humidity Pressure Visibility Wind Dir Wind Speed Gust Speed Precip Events Conditions
12:50 AM 48.2 °F - 48.2 °F 100% 30.57 in 6.2 mi SW 3.5 mph - N/A   Mostly Cloudy
1:50 AM 48.2 °F - 48.2 °F 100% 30.57 in 6.2 mi West 1.2 mph - N/A   Light Drizzle
2:50 AM 49 °F - 48 °F 95% 30.58 in 12 mi SSW 1.2 mph - - Rain Rain
2:50 AM 48.2 °F - 48.2 °F 100% 30.57 in 6.2 mi SSW 1.2 mph - N/A   Overcast
3:50 AM 48.2 °F - 48.2 °F 100% 30.57 in 6.2 mi SSW 1.2 mph - N/A   Overcast
4:50 AM 48.2 °F - 48.2 °F 100% 30.57 in 6.2 mi SW 3.5 mph - N/A   Overcast
5:50 AM 49 °F - 48 °F 95% 30.57 in 12 mi WSW 4.6 mph - -  
5:50 AM 50.0 °F - 48.2 °F 94% 30.54 in 6.2 mi WSW 4.6 mph - N/A   Overcast
6:50 AM 50.0 °F - 48.2 °F 94% 30.54 in 6.2 mi West 5.8 mph - N/A   Overcast
7:50 AM 50.0 °F - 46.4 °F 87% 30.57 in 6.2 mi West 5.8 mph - N/A   Overcast
8:50 AM 50.0 °F - 46.4 °F 87% 30.57 in 6.2 mi WSW 3.5 mph - N/A   Overcast
9:50 AM 48.2 °F - 46.4 °F 93% 30.57 in 6.2 mi Calm Calm - N/A   Partly Cloudy
10:50 AM 50.0 °F - 48.2 °F 94% 30.57 in 6.2 mi East 1.2 mph - N/A   Unknown
11:50 AM 51 °F - 47 °F 83% 30.58 in 17 mi NE 1.2 mph - -  
11:50 AM 51.8 °F - 48.2 °F 88% 30.57 in 6.2 mi NE 1.2 mph - N/A   Unknown
12:50 PM 53.6 °F - 48.2 °F 82% 30.54 in 6.2 mi SW 1.2 mph - N/A   Unknown
1:50 PM 53.6 °F - 46.4 °F 77% 30.54 in 6.2 mi West 2.3 mph - N/A   Unknown
2:50 PM 51 °F - 47 °F 80% 30.56 in 7 mi WNW 4.6 mph - -   Scattered Clouds
2:50 PM 51.8 °F - 46.4 °F 82% 30.54 in 6.2 mi WNW 4.6 mph - N/A   Partly Cloudy
3:50 PM 50.0 °F - 46.4 °F 87% 30.54 in 6.2 mi WNW 1.2 mph - N/A   Unknown
4:50 PM 48.2 °F - 46.4 °F 93% 30.54 in 6.2 mi NW 2.3 mph - N/A   Mostly Cloudy
5:50 PM 48 °F - 45 °F 87% 30.55 in 11 mi WNW 1.2 mph - -  
5:50 PM 48.2 °F - 44.6 °F 87% 30.54 in 6.2 mi WNW 1.2 mph - N/A   Unknown
6:50 PM 46.4 °F - 44.6 °F 93% 30.54 in 6.2 mi SSE 2.3 mph - N/A   Partly Cloudy
7:50 PM 46.4 °F - 46.4 °F 100% 30.54 in 6.2 mi SSW 1.2 mph - N/A   Unknown
8:50 PM 44 °F - 44 °F 98% 30.54 in 8 mi North 3.5 mph - -  
8:50 PM 44.6 °F 43.1 °F 44.6 °F 100% 30.54 in 6.2 mi North 3.5 mph - N/A   Unknown
9:50 PM 46.4 °F - 46.4 °F 100% 30.54 in 6.2 mi NNW 1.2 mph - N/A   Mostly Cloudy
10:50 PM 46.4 °F 45.2 °F 44.6 °F 93% 30.51 in 6.2 mi ENE 3.5 mph - N/A   Mostly Cloudy
11:50 PM 47 °F - 46 °F 96% 30.51 in 7 mi SE 3.5 mph - -   Overcast
11:50 PM 46.4 °F 45.2 °F 46.4 °F 100% 30.48 in 6.2 mi SE 3.5 mph - N/A   Overcast